Flag for U.S.A. Weather past 2 weeks in Norfolk, Virginia, U.S.A.

Now
73 °F

Passing clouds.


Feels Like: 72 °F
Forecast: 68 / 83 °F
Wind: 10 mph from Northeast

Location: Norfolk Naval Air Station

Current Time: Aug 27, 2014 at 7:04:42 AM

Latest Report: Aug 27, 2014 at 5:59 AM


Visibility: 10 mi

Pressure: 30.04 "Hg

Humidity: 84%

Dew point: 68 °F

Location of NorfolkLocation

Historic Weather in Norfolk — Graph

°F

Norfolk temperature yesterday

Maximum temperature yesterday: 80 °F (at 12:59 PM)
Minimum temperature yesterday: 72 °F (at 2:59 AM)
Average temperature yesterday: 75 °F

Past Weeks' High & Low Weather Summary

 TemperatureHumidityPressure
High89 °F (Aug 21, 1:59 PM)94% (Aug 19, 4:59 AM)30.15 "Hg (Aug 19, 4:59 AM)
Low70 °F (Aug 14, 5:59 AM)29% (Aug 14, 1:59 PM)29.76 "Hg (Aug 13, 2:59 AM)
Average78 °F70%29.97 "Hg
* Reported Aug 12 5:59 AM — Aug 27 5:59 AM, Norfolk, Weather by CustomWeather, © 2014

Note: Actual official high and low records may vary slightly from our data, if they occured in-between our weather recording intervals... More about our weather records

Advertising

Norfolk weather history for previous 24 hours

 ConditionsComfort  
Time TempWeatherWind HumidityBarometerVisibility
5:59 AM
Aug 27
73 °FPassing clouds.10 mph84%30.04 "Hg10 mi
4:59 AM74 °FPassing clouds.10 mph82%30.04 "Hg10 mi
3:59 AM74 °FPassing clouds.10 mph82%30.03 "Hg10 mi
2:59 AM73 °FPassing clouds.7 mph84%30.05 "Hg10 mi
1:59 AM73 °FPassing clouds.8 mph84%30.06 "Hg10 mi
12:59 AM73 °FPassing clouds.8 mph84%30.08 "Hg10 mi
11:59 PM
Aug 26
73 °FPassing clouds.8 mph84%30.09 "Hg10 mi
10:59 PM73 °FPassing clouds.9 mph84%30.10 "Hg10 mi
9:59 PM73 °FPassing clouds.7 mph81%30.10 "Hg10 mi
8:59 PM73 °FPassing clouds.8 mph79%30.11 "Hg10 mi
7:59 PM74 °FScattered clouds.7 mph74%30.11 "Hg10 mi
6:59 PM76 °FScattered clouds.13 mph62%30.11 "Hg10 mi
5:59 PM77 °FPassing clouds.13 mph64%30.10 "Hg10 mi
4:59 PM78 °FPassing clouds.12 mph62%30.11 "Hg10 mi
3:59 PM80 °FPassing clouds.9 mph58%30.11 "Hg10 mi
2:59 PM80 °FPassing clouds.10 mph56%30.13 "Hg10 mi
1:59 PM80 °FPassing clouds.12 mph58%30.14 "Hg10 mi
12:59 PM80 °FScattered clouds.12 mph58%30.15 "Hg10 mi
11:59 AM79 °FScattered clouds.13 mph60%30.15 "Hg10 mi
10:59 AM78 °FPassing clouds.13 mph64%30.15 "Hg10 mi
9:59 AM77 °FPassing clouds.13 mph69%30.14 "Hg10 mi
8:59 AM76 °FPassing clouds.14 mph72%30.14 "Hg10 mi
7:59 AM74 °FScattered clouds.14 mph76%30.14 "Hg10 mi
Weather by CustomWeather, © 2014

See weather overviewHow to use our weather pages